Location: Campolattaro
(41.2833°N, 14.7333°E)
Time: 00:38:29
(UTC+00:00)

Cosmos 1937 Rocket - Pass Details

Date: 19 May 2025
Orbit: 743 x 775 km, 74.0° (Epoch: 22 June)

Event Time Altitude Azimuth Distance (km) Brightness Sun altitude
Rises 18:45:17 0° 339° (NNW) 3,217 7.7 -5.4°
Reaches altitude 10° 18:47:40 10° 338° (NNW) 2,283 6.9 -5.8°
Maximum altitude 18:52:49 77° 253° (WSW) 773 3.7 -6.6°
Drops below altitude 10° 18:57:55 10° 168° (SSE) 2,252 5.5 -7.4°
Enters shadow 19:00:03 - 167° (SSE) 3,094 6.2 -7.7°
